This is the latest recevied weather packets stored in our database for station/object W4ZHA. If no packets are shown the sender has not sent any weather packets the latest 10 day(s).
| Time | Temp. | Humidity | Pressure | Rain* | Wind** | Luminosity | Snow |
|---|---|---|---|---|---|---|---|
| 1787403159 | 24.44° C | 99% | 1017.2 hPa | 0 mm | - | 37 W/m² | - |
| 1787402855 | 23.89° C | 99% | 1016.8 hPa | 0 mm | - | 33 W/m² | - |
| 1787402550 | 23.89° C | 99% | 1016.8 hPa | 0 mm | - | 31 W/m² | - |
| 1787402249 | 23.33° C | 99% | 1017.2 hPa | 0 mm | - | 33 W/m² | - |
| 1787401944 | 23.33° C | 99% | 1017.2 hPa | 0 mm | - | 35 W/m² | - |
| 1787401640 | 23.33° C | 99% | 1016.8 hPa | 0 mm | - | 38 W/m² | - |
| 1787401336 | 23.33° C | 99% | 1017.2 hPa | 0 mm | - | 36 W/m² | - |
| 1787401031 | 22.78° C | 99% | 1016.8 hPa | 0 mm | - | 34 W/m² | - |
| 1787400727 | 22.78° C | 99% | 1016.8 hPa | 0 mm | - | 26 W/m² | - |
| 1787400426 | 22.78° C | 99% | 1016.8 hPa | 0 mm | - | 23 W/m² | - |
| 1787400122 | 22.78° C | 99% | 1016.8 hPa | 0 mm | - | 21 W/m² | - |
| 1787399819 | 22.22° C | 99% | 1016.8 hPa | 0 mm | - | 19 W/m² | - |
| 1787399515 | 22.22° C | 99% | 1016.5 hPa | 0 mm | - | 18 W/m² | - |
| 1787399213 | 22.22° C | 99% | 1016.5 hPa | 0 mm | - | 13 W/m² | - |
| 1787398908 | 22.22° C | 99% | 1016.5 hPa | 0 mm | - | 12 W/m² | - |
| 1787398603 | 22.22° C | 99% | 1016.5 hPa | 0 mm | - | 10 W/m² | - |
| 1787398301 | 22.22° C | 99% | 1016.5 hPa | 0 mm | - | 8 W/m² | - |
| 1787397996 | 22.22° C | 99% | 1016.5 hPa | 0 mm | - | 5 W/m² | - |
| 1787397696 | 22.22° C | 99% | 1016.5 hPa | 0 mm | - | 3 W/m² | - |
| 1787397395 | 22.22° C | 99% | 1016.1 hPa | 0 mm | - | 0 W/m² | - |
| 1787397096 | 21.67° C | 99% | 1016.1 hPa | 0 mm | - | 0 W/m² | - |
| 1787396791 | 22.22° C | 99% | 1016.1 hPa | 0 mm | - | 0 W/m² | - |
| 1787396487 | 21.67° C | 99% | 1016.1 hPa | 0 mm | - | 0 W/m² | - |
| 1787396186 | 21.67° C | 99% | 1015.5 hPa | 0 mm | - | 0 W/m² | - |
| 1787395882 | 21.67° C | 99% | 1015.8 hPa | 0 mm | - | 0 W/m² | - |
* Rain latest hour (hover to see other rain measurements)
** Current wind speed in m/s (hover to see current wind gust speed)